Date String (YYYY-MM-DD hh:mm:ss) UTC,Instrument flags,absolute air pressure of the measurement (hPa),sample flow rate (lpm),inlet stack bypass flow (lpm),air temperature of the measurement (°C),ambient temperature measured by the external sensor (°C),aerosol sample conditioner tube jacket temperature (°C),OPC LED temperature (°C),internal box temperature (°C),relative humidity of the measurement (%),span deviation,mass concentration of particles derived from Lorenz-Mie calculation of OPC scattering (μg/m³),mass concentration of particles derived from Lorenz-Mie calculation of OPC scattering (μg/m³),mass concentration of particles derived from Lorenz-Mie calculation of OPC scattering (μg/m³)
DateTimeUTC,F1_M11,P_M11,Q1_M11,Q2_M11,T1_M11,T2_M11,T3_M11,T4_M11,T5_M11,U1_M11,ZSPAN_M11,X0_M11,X2_M11,X1_M11
2024-04-24 06:00:00,SystemResetWarning,0831.6,4.99,000.00,026.3,025.6,000.0,034.8,028.1,023.3,0000.0,0008.98,0004.03,0003.16
2024-04-24 06:01:00,SystemResetWarning,0831.6,5.01,000.00,026.3,025.6,000.0,034.8,028.1,023.2,0000.0,0008.87,0004.00,0003.16
2024-04-24 06:02:00,SystemResetWarning,0831.6,5.01,000.00,026.3,025.6,000.0,034.8,028.1,023.1,0000.0,0008.86,0003.99,0003.16
2024-04-24 06:03:00,SystemResetWarning,0831.6,5.01,000.00,026.3,025.6,000.0,034.8,028.1,023.0,0000.0,0009.31,0003.98,0003.16
2024-04-24 06:04:00,SystemResetWarning,0831.6,4.99,000.00,026.3,025.6,000.0,034.8,028.1,023.0,0000.0,0009.96,0004.02,0003.15
2024-04-24 06:05:00,SystemResetWarning,0831.6,4.99,000.00,026.3,025.6,000.0,034.8,028.1,023.0,0000.0,0010.49,0004.06,0003.15
2024-04-24 06:06:00,SystemResetWarning,0831.6,4.99,000.00,026.3,025.6,000.0,034.8,028.1,023.1,0000.0,0010.58,0004.08,0003.15
2024-04-24 06:07:00,SystemResetWarning,0831.5,5.00,000.00,026.3,025.6,000.0,034.8,028.1,023.2,0000.0,0010.45,0004.09,0003.15
2024-04-24 06:08:00,SystemResetWarning,0831.5,5.00,000.00,026.3,025.6,000.0,034.8,028.1,023.2,0000.0,0010.33,0004.14,0003.16
2024-04-24 06:09:00,SystemResetWarning,0831.5,5.00,000.00,026.3,025.6,000.0,034.8,028.1,023.2,0000.0,0010.19,0004.17,0003.18
2024-04-24 06:10:00,SystemResetWarning,0831.4,5.00,000.00,026.3,025.6,000.0,034.8,028.1,022.9,0000.0,0010.27,0004.19,0003.17
2024-04-24 06:11:00,SystemResetWarning,0831.4,5.00,000.00,026.3,025.6,000.0,034.8,028.1,022.8,0000.0,0010.21,0004.19,0003.17
2024-04-24 06:12:00,SystemResetWarning,0831.3,5.00,000.00,026.3,025.6,000.0,034.8,028.1,022.7,0000.0,0010.46,0004.17,0003.16
2024-04-24 06:13:00,SystemResetWarning,0831.4,5.00,000.00,026.3,025.5,000.0,034.8,028.1,022.6,0000.0,0010.41,0004.18,0003.15
2024-04-24 06:14:00,SystemResetWarning,0831.4,5.00,000.00,026.3,025.5,000.0,034.8,028.1,022.3,0000.0,0010.62,0004.18,0003.15
2024-04-24 06:15:00,SystemResetWarning,0831.4,5.00,000.00,026.3,025.5,000.0,034.8,028.1,022.2,0000.0,0009.88,0004.17,0003.15
2024-04-24 06:16:00,SystemResetWarning,0831.4,5.00,000.00,026.3,025.5,000.0,034.8,028.1,022.2,0000.0,0009.39,0004.15,0003.15
2024-04-24 06:17:00,SystemResetWarning,0831.4,5.00,000.00,026.3,025.5,000.0,034.8,028.1,022.2,0000.0,0009.31,0004.15,0003.14
2024-04-24 06:18:00,SystemResetWarning,0831.4,5.00,000.00,026.3,025.6,000.0,034.8,028.1,022.1,0000.0,0009.32,0004.16,0003.14
2024-04-24 06:19:00,SystemResetWarning,0831.4,5.00,000.00,026.3,025.6,000.0,034.8,028.1,022.0,0000.0,0009.21,0004.12,0003.12
2024-04-24 06:20:00,SystemResetWarning,0831.5,5.00,000.00,026.3,025.6,000.0,034.8,028.1,022.0,0000.0,0009.21,0004.08,0003.11
2024-04-24 06:21:00,SystemResetWarning,0831.4,5.00,000.00,026.3,025.6,000.0,034.8,028.1,021.9,0000.0,0009.14,0004.03,0003.09
2024-04-24 06:22:00,SystemResetWarning,0831.4,5.00,000.00,026.3,025.6,000.0,034.8,028.1,021.9,0000.0,0009.17,0004.00,0003.06
2024-04-24 06:23:00,SystemResetWarning,0831.4,4.99,000.00,026.3,025.6,000.0,034.8,028.1,021.9,0000.0,0009.40,0004.01,0003.06
2024-04-24 06:24:00,SystemResetWarning,0831.4,5.00,000.00,026.3,025.6,000.0,034.8,028.1,021.8,0000.0,0009.59,0003.99,0003.05
2024-04-24 06:25:00,SystemResetWarning,0831.4,5.00,000.00,026.3,025.6,000.0,034.8,028.1,021.8,0000.0,0008.99,0003.97,0003.04
2024-04-24 06:26:00,SystemResetWarning,0831.4,5.00,000.00,026.3,025.6,000.0,034.8,028.1,021.9,0000.0,0008.98,0003.93,0003.03
2024-04-24 06:27:00,SystemResetWarning,0831.4,5.00,000.00,026.3,025.6,000.0,034.8,028.1,022.0,0000.0,0009.20,0003.94,0003.04
2024-04-24 06:28:00,SystemResetWarning,0831.4,5.00,000.00,026.3,025.6,000.0,034.8,028.1,021.9,0000.0,0009.29,0003.92,0003.04
2024-04-24 06:29:00,SystemResetWarning,0831.4,5.00,000.00,026.3,025.5,000.0,034.8,028.1,022.1,0000.0,0009.47,0003.88,0003.04
2024-04-24 06:30:00,SystemResetWarning,0831.4,5.00,000.00,026.3,025.5,000.0,034.8,028.1,021.9,0000.0,0009.44,0003.87,0003.06
2024-04-24 06:31:00,SystemResetWarning,0831.4,5.00,000.00,026.3,025.5,000.0,034.8,028.1,021.9,0000.0,0009.26,0003.88,0003.07
2024-04-24 06:32:00,SystemResetWarning,0831.3,5.01,000.00,026.3,025.5,000.0,034.8,028.1,021.8,0000.0,0009.25,0003.92,0003.09
2024-04-24 06:33:00,SystemResetWarning,0831.4,5.00,000.00,026.2,025.5,000.0,034.8,028.1,021.9,0000.0,0009.38,0003.95,0003.10
2024-04-24 06:34:00,SystemResetWarning,0831.4,5.00,000.00,026.2,025.5,000.0,034.8,028.1,021.9,0000.0,0009.00,0003.95,0003.11
2024-04-24 06:35:00,SystemResetWarning,0831.4,5.00,000.00,026.2,025.5,000.0,034.8,028.1,021.8,0000.0,0008.90,0003.96,0003.11
2024-04-24 06:36:00,SystemResetWarning,0831.4,5.00,000.00,026.2,025.5,000.0,034.8,028.1,021.8,0000.0,0009.20,0003.98,0003.11
2024-04-24 06:37:00,SystemResetWarning,0831.5,5.00,000.00,026.2,025.5,000.0,034.8,028.0,021.8,0000.0,0009.45,0003.98,0003.11
2024-04-24 06:38:00,SystemResetWarning,0831.4,5.00,000.00,026.2,025.5,000.0,034.8,028.0,021.7,0000.0,0009.70,0004.04,0003.11
2024-04-24 06:39:00,SystemResetWarning,0831.5,5.01,000.00,026.2,025.5,000.0,034.8,028.0,021.6,0000.0,0009.63,0004.03,0003.11
2024-04-24 06:40:00,SystemResetWarning,0831.5,5.00,000.00,026.2,025.5,000.0,034.8,028.0,021.6,0000.0,0009.73,0004.05,0003.11
2024-04-24 06:41:00,SystemResetWarning,0831.5,5.00,000.00,026.2,025.5,000.0,034.8,028.1,021.5,0000.0,0009.97,0004.10,0003.11
2024-04-24 06:42:00,SystemResetWarning,0831.5,5.00,000.00,026.2,025.5,000.0,034.8,028.0,021.4,0000.0,0010.16,0004.14,0003.12
2024-04-24 06:43:00,SystemResetWarning,0831.6,4.99,000.00,026.2,025.5,000.0,034.8,028.0,021.4,0000.0,0010.31,0004.16,0003.12
2024-04-24 06:44:00,SystemResetWarning,0831.6,4.99,000.00,026.2,025.5,000.0,034.8,028.0,021.4,0000.0,0010.33,0004.14,0003.11
2024-04-24 06:45:00,SystemResetWarning,0831.6,4.99,000.00,026.2,025.5,000.0,034.8,028.0,021.5,0000.0,0010.37,0004.12,0003.11
2024-04-24 06:46:00,SystemResetWarning,0831.6,5.01,000.00,026.2,025.5,000.0,034.8,028.0,021.6,0000.0,0010.38,0004.14,0003.11
2024-04-24 06:47:00,SystemResetWarning,0831.6,5.01,000.00,026.2,025.5,000.0,034.8,028.0,021.8,0000.0,0010.26,0004.13,0003.11
2024-04-24 06:48:00,SystemResetWarning,0831.6,4.99,000.00,026.2,025.5,000.0,034.8,028.0,021.8,0000.0,0010.20,0004.12,0003.11
2024-04-24 06:49:00,SystemResetWarning,0831.6,4.99,000.00,026.2,025.5,000.0,034.8,028.0,021.8,0000.0,0009.88,0004.08,0003.11
2024-04-24 06:50:00,SystemResetWarning,0831.6,5.01,000.00,026.2,025.5,000.0,034.8,028.0,021.8,0000.0,0009.84,0004.08,0003.10
2024-04-24 06:51:00,SystemResetWarning,0831.6,5.01,000.00,026.2,025.5,000.0,034.7,028.0,021.7,0000.0,0009.44,0004.05,0003.10
2024-04-24 06:52:00,SystemResetWarning,0831.6,5.00,000.00,026.2,025.5,000.0,034.7,028.0,021.7,0000.0,0009.26,0004.04,0003.10
2024-04-24 06:53:00,SystemResetWarning,0831.6,5.00,000.00,026.2,025.5,000.0,034.7,028.0,021.8,0000.0,0009.15,0004.00,0003.10
2024-04-24 06:54:00,SystemResetWarning,0831.6,5.00,000.00,026.2,025.4,000.0,034.7,028.0,021.8,0000.0,0009.25,0003.97,0003.09
2024-04-24 06:55:00,SystemResetWarning,0831.5,5.00,000.00,026.2,025.4,000.0,034.7,028.0,021.8,0000.0,0009.89,0003.99,0003.10
2024-04-24 06:56:00,SystemResetWarning,0831.5,5.01,000.00,026.2,025.4,000.0,034.7,028.0,022.0,0000.0,0009.79,0004.01,0003.11
2024-04-24 06:57:00,SystemResetWarning,0831.5,5.01,000.00,026.2,025.4,000.0,034.7,028.0,021.9,0000.0,0009.80,0004.04,0003.12
2024-04-24 06:58:00,SystemResetWarning,0831.5,5.00,000.00,026.2,025.4,000.0,034.7,028.0,021.8,0000.0,0009.73,0004.09,0003.12
2024-04-24 06:59:00,SystemResetWarning,0831.5,4.99,000.00,026.1,025.4,000.0,034.7,028.0,021.7,0000.0,0009.76,0004.18,0003.12
